User: anonymous   Login
Location: Unspecified
(0.0000°N, 0.0000°E)
Time: 17:30:52
(UTC+00:00)
Language:

Gonets-D1 - Orbit

View from above orbital plane
View from above orbital plane
View from above satellite
View from above satellite

Ground track
Ground track

The orbit data is extracted from the following two-line orbital elements,

1 24726U 97006B   19016.89984299 +.00000037 +00000-0 +15016-3 0  9994
2 24726 082.5994 183.6625 0006013 104.3642 255.8117 12.61339601009113
Epoch (UTC): 16 January 2019 21:35:46
Eccentricity: 0.0006013
inclination: 82.5994°
perigee height: 1413 km
apogee height: 1422 km
right ascension of ascending node: 183.6625°
argument of perigee: 104.3642°
revolutions per day: 12.61339601
mean anomaly at epoch: 255.8117°
orbit number at epoch: 911

The dashed part of the orbit path shows where the satellite is in the earth's shadow,  

DLR